Time,TemperatureF,DewpointF,PressureIn,WindDirection,WindDirectionDegrees,WindSpeedMPH,WindSpeedGustMPH,Humidity,HourlyPrecipIn,Conditions,Clouds,dailyrainin,SoftwareType,DateUTC
2013-07-16 00:02:00,68.9,61.0,29.68,NE,39,0.0,0.0,76,-99.99,,,-99.99,WSDL version 423,2013-07-16 04:02:00,
2013-07-16 00:07:00,68.8,61.0,29.68,NNE,23,0.0,0.0,77,-99.99,,,-99.99,WSDL version 423,2013-07-16 04:07:00,
2013-07-16 00:12:00,68.6,61.2,29.68,NNE,17,0.4,1.3,77,-99.99,,,-99.99,WSDL version 423,2013-07-16 04:12:00,
2013-07-16 00:17:00,68.5,61.4,29.68,North,5,0.0,1.3,79,-99.99,,,-99.99,WSDL version 423,2013-07-16 04:17:00,
2013-07-16 00:22:00,68.4,61.7,29.68,North,3,0.4,1.3,79,-99.99,,,-99.99,WSDL version 423,2013-07-16 04:22:00,
2013-07-16 00:27:00,68.3,61.5,29.68,North,360,0.0,1.3,79,-99.99,,,-99.99,WSDL version 423,2013-07-16 04:27:00,
2013-07-16 00:32:00,68.1,61.7,29.68,North,360,0.0,0.0,80,-99.99,,,-99.99,WSDL version 423,2013-07-16 04:32:00,
2013-07-16 00:37:00,68.0,61.8,29.68,North,360,0.0,0.0,81,-99.99,,,-99.99,WSDL version 423,2013-07-16 04:37:00,
2013-07-16 00:42:00,67.8,62.1,29.68,North,360,0.0,0.0,82,-99.99,,,-99.99,WSDL version 423,2013-07-16 04:42:00,
2013-07-16 00:47:00,67.7,62.0,29.68,NNE,19,0.0,0.0,82,-99.99,,,-99.99,WSDL version 423,2013-07-16 04:47:00,
2013-07-16 00:52:00,67.6,62.0,29.68,NE,40,0.0,0.0,82,-99.99,,,-99.99,WSDL version 423,2013-07-16 04:52:00,
2013-07-16 00:57:00,67.5,61.9,29.68,NNE,28,0.0,2.0,82,-99.99,,,-99.99,WSDL version 423,2013-07-16 04:57:00,
2013-07-16 01:02:00,67.3,61.9,29.68,North,354,1.6,2.7,83,-99.99,,,-99.99,WSDL version 423,2013-07-16 05:02:00,
2013-07-16 01:07:00,67.2,62.5,29.68,North,355,0.6,2.7,86,-99.99,,,-99.99,WSDL version 423,2013-07-16 05:07:00,
2013-07-16 01:12:00,67.1,62.6,29.68,North,10,1.3,2.5,86,-99.99,,,-99.99,WSDL version 423,2013-07-16 05:12:00,
2013-07-16 01:17:00,67.1,62.8,29.68,North,3,0.0,2.5,87,-99.99,,,-99.99,WSDL version 423,2013-07-16 05:17:00,
2013-07-16 01:22:00,67.1,62.6,29.68,NNW,338,0.0,0.9,86,-99.99,,,-99.99,WSDL version 423,2013-07-16 05:22:00,
2013-07-16 01:27:00,66.9,62.5,29.68,NNE,15,0.0,0.0,86,-99.99,,,-99.99,WSDL version 423,2013-07-16 05:27:00,
2013-07-16 01:32:00,66.9,62.3,29.68,North,360,0.0,0.0,86,-99.99,,,-99.99,WSDL version 423,2013-07-16 05:32:00,
2013-07-16 01:37:00,66.7,62.3,29.68,North,3,0.0,0.0,86,-99.99,,,-99.99,WSDL version 423,2013-07-16 05:37:00,
2013-07-16 01:42:00,66.7,62.3,29.68,NNE,23,0.0,0.0,86,-99.99,,,-99.99,WSDL version 423,2013-07-16 05:42:00,
2013-07-16 01:47:00,66.7,62.2,29.68,North,6,0.0,0.0,84,-99.99,,,-99.99,WSDL version 423,2013-07-16 05:47:00,
2013-07-16 01:52:00,66.7,62.0,29.68,NE,34,0.0,0.0,86,-99.99,,,-99.99,WSDL version 423,2013-07-16 05:52:00,
2013-07-16 01:57:00,66.6,61.9,29.68,North,360,0.0,0.0,86,-99.99,,,-99.99,WSDL version 423,2013-07-16 05:57:00,
2013-07-16 02:02:00,66.6,62.1,29.68,North,360,0.0,0.0,86,-99.99,,,-99.99,WSDL version 423,2013-07-16 06:02:00,
2013-07-16 02:07:00,66.4,61.8,29.68,North,360,0.0,0.0,86,-99.99,,,-99.99,WSDL version 423,2013-07-16 06:07:00,
2013-07-16 02:12:00,66.4,61.8,29.68,NE,45,0.0,0.0,84,-99.99,,,-99.99,WSDL version 423,2013-07-16 06:12:00,
2013-07-16 02:17:00,66.3,61.9,29.68,NNE,33,0.0,0.0,86,-99.99,,,-99.99,WSDL version 423,2013-07-16 06:17:00,
2013-07-16 02:22:00,66.2,61.7,29.68,NNW,338,0.0,0.0,86,-99.99,,,-99.99,WSDL version 423,2013-07-16 06:22:00,
2013-07-16 02:27:00,66.0,61.9,29.68,NNE,28,0.0,0.0,87,-99.99,,,-99.99,WSDL version 423,2013-07-16 06:27:00,
2013-07-16 02:32:00,66.0,62.1,29.68,NNW,343,0.0,0.0,88,-99.99,,,-99.99,WSDL version 423,2013-07-16 06:32:00,
2013-07-16 02:37:00,65.9,62.2,29.68,NNW,338,0.0,0.0,88,-99.99,,,-99.99,WSDL version 423,2013-07-16 06:37:00,
2013-07-16 02:42:00,65.8,62.1,29.68,NNW,343,0.0,0.0,88,-99.99,,,-99.99,WSDL version 423,2013-07-16 06:42:00,
2013-07-16 02:47:00,65.7,62.2,29.68,North,360,0.0,0.0,89,-99.99,,,-99.99,WSDL version 423,2013-07-16 06:47:00,
2013-07-16 02:52:00,65.7,62.4,29.68,NNE,23,0.0,0.9,90,-99.99,,,-99.99,WSDL version 423,2013-07-16 06:52:00,
2013-07-16 02:57:00,65.7,62.4,29.68,North,360,0.0,0.9,89,-99.99,,,-99.99,WSDL version 423,2013-07-16 06:57:00,
2013-07-16 03:02:00,65.5,62.2,29.68,North,3,0.0,0.0,89,-99.99,,,-99.99,WSDL version 423,2013-07-16 07:02:00,
2013-07-16 03:07:00,65.4,62.0,29.68,NNE,23,0.0,0.0,89,-99.99,,,-99.99,WSDL version 423,2013-07-16 07:07:00,
2013-07-16 03:12:00,65.3,62.1,29.68,NNE,23,0.0,0.0,89,-99.99,,,-99.99,WSDL version 423,2013-07-16 07:12:00,
2013-07-16 03:17:00,65.3,61.9,29.68,NNE,23,0.0,0.0,89,-99.99,,,-99.99,WSDL version 423,2013-07-16 07:17:00,
2013-07-16 03:22:00,65.1,61.9,29.68,North,360,0.0,0.0,89,-99.99,,,-99.99,WSDL version 423,2013-07-16 07:22:00,
2013-07-16 03:27:00,65.0,61.6,29.71,North,350,0.0,0.0,89,-99.99,,,-99.99,WSDL version 423,2013-07-16 07:27:00,
2013-07-16 03:32:00,64.9,61.9,29.71,NW,315,0.0,0.0,90,-99.99,,,-99.99,WSDL version 423,2013-07-16 07:32:00,
2013-07-16 03:37:00,64.9,61.8,29.71,North,3,0.0,0.0,90,-99.99,,,-99.99,WSDL version 423,2013-07-16 07:37:00,
2013-07-16 03:42:00,64.8,61.8,29.68,NNW,343,0.0,0.0,90,-99.99,,,-99.99,WSDL version 423,2013-07-16 07:42:00,
2013-07-16 03:47:00,64.7,61.8,29.68,North,360,0.0,0.0,91,-99.99,,,-99.99,WSDL version 423,2013-07-16 07:47:00,
2013-07-16 03:52:00,64.6,61.9,29.68,NNE,23,0.0,0.0,91,-99.99,,,-99.99,WSDL version 423,2013-07-16 07:52:00,
2013-07-16 03:57:00,64.4,61.8,29.68,North,354,0.0,0.0,91,-99.99,,,-99.99,WSDL version 423,2013-07-16 07:57:00,
2013-07-16 04:02:00,64.4,62.1,29.68,North,358,0.2,1.3,92,-99.99,,,-99.99,WSDL version 423,2013-07-16 08:02:00,
2013-07-16 04:07:00,64.4,62.4,29.68,NNW,343,1.0,2.5,93,-99.99,,,-99.99,WSDL version 423,2013-07-16 08:07:00,
2013-07-16 04:12:00,64.4,62.4,29.68,North,360,0.0,2.5,93,-99.99,,,-99.99,WSDL version 423,2013-07-16 08:12:00,
2013-07-16 04:17:00,64.4,62.6,29.68,North,360,0.0,0.0,93,-99.99,,,-99.99,WSDL version 423,2013-07-16 08:17:00,
2013-07-16 04:22:00,64.4,62.8,29.68,North,360,0.0,0.0,94,-99.99,,,-99.99,WSDL version 423,2013-07-16 08:22:00,
2013-07-16 04:27:00,64.4,62.8,29.68,NE,39,0.0,0.0,94,-99.99,,,-99.99,WSDL version 423,2013-07-16 08:27:00,
2013-07-16 04:32:00,64.4,62.8,29.68,NNE,23,0.0,0.0,94,-99.99,,,-99.99,WSDL version 423,2013-07-16 08:32:00,
2013-07-16 04:37:00,64.4,62.8,29.68,ENE,68,0.0,0.0,94,-99.99,,,-99.99,WSDL version 423,2013-07-16 08:37:00,
2013-07-16 04:42:00,64.4,63.1,29.68,ENE,65,0.0,0.0,96,-99.99,,,-99.99,WSDL version 423,2013-07-16 08:42:00,
2013-07-16 04:47:00,64.4,62.8,29.68,North,10,0.0,0.9,94,-99.99,,,-99.99,WSDL version 423,2013-07-16 08:47:00,
2013-07-16 04:52:00,64.4,62.8,29.68,North,357,0.0,0.9,94,-99.99,,,-99.99,WSDL version 423,2013-07-16 08:52:00,
2013-07-16 04:57:00,64.4,62.8,29.68,NNE,23,0.0,0.0,96,-99.99,,,-99.99,WSDL version 423,2013-07-16 08:57:00,
2013-07-16 05:02:00,64.4,63.1,29.68,NNE,23,0.0,0.0,96,-99.99,,,-99.99,WSDL version 423,2013-07-16 09:02:00,
2013-07-16 05:07:00,64.4,62.8,29.68,NNE,23,0.0,0.0,94,-99.99,,,-99.99,WSDL version 423,2013-07-16 09:07:00,
2013-07-16 05:12:00,64.3,62.7,29.68,WNW,293,0.0,0.0,94,-99.99,,,-99.99,WSDL version 423,2013-07-16 09:12:00,
2013-07-16 05:17:00,64.2,62.6,29.68,WNW,293,0.0,0.0,94,-99.99,,,-99.99,WSDL version 423,2013-07-16 09:17:00,
2013-07-16 05:22:00,64.2,62.5,29.68,NW,325,0.0,0.0,94,-99.99,,,-99.99,WSDL version 423,2013-07-16 09:22:00,
2013-07-16 05:27:00,64.0,62.4,29.68,NNE,28,0.0,0.0,94,-99.99,,,-99.99,WSDL version 423,2013-07-16 09:27:00,
2013-07-16 05:32:00,64.0,62.3,29.68,NE,45,0.0,0.0,94,-99.99,,,-99.99,WSDL version 423,2013-07-16 09:32:00,
2013-07-16 05:37:00,63.9,62.3,29.68,North,360,0.0,0.0,94,-99.99,,,-99.99,WSDL version 423,2013-07-16 09:37:00,
2013-07-16 05:42:00,63.9,62.4,29.68,NW,315,0.0,0.0,96,-99.99,,,-99.99,WSDL version 423,2013-07-16 09:42:00,
2013-07-16 05:47:00,63.9,62.6,29.68,North,360,0.0,0.0,96,-99.99,,,-99.99,WSDL version 423,2013-07-16 09:47:00,
2013-07-16 05:52:00,63.9,62.6,29.68,North,8,0.0,0.0,96,-99.99,,,-99.99,WSDL version 423,2013-07-16 09:52:00,
2013-07-16 05:57:00,64.0,62.9,29.68,NNE,23,0.0,0.0,97,-99.99,,,-99.99,WSDL version 423,2013-07-16 09:57:00,
2013-07-16 06:02:00,64.2,63.2,29.68,NE,45,0.0,0.0,97,-99.99,,,-99.99,WSDL version 423,2013-07-16 10:02:00,
2013-07-16 06:07:00,64.6,63.6,29.68,NNE,30,0.0,0.0,97,-99.99,,,-99.99,WSDL version 423,2013-07-16 10:07:00,
2013-07-16 06:12:00,65.8,65.2,29.71,North,349,0.7,1.3,98,-99.99,,,-99.99,WSDL version 423,2013-07-16 10:12:00,
2013-07-16 06:17:00,66.2,65.3,29.71,NNW,338,0.0,1.3,97,-99.99,,,-99.99,WSDL version 423,2013-07-16 10:17:00,
2013-07-16 06:22:00,66.0,64.9,29.71,North,360,0.0,1.3,96,-99.99,,,-99.99,WSDL version 423,2013-07-16 10:22:00,
2013-07-16 06:27:00,66.4,65.1,29.71,North,360,0.0,0.0,96,-99.99,,,-99.99,WSDL version 423,2013-07-16 10:27:00,
2013-07-16 06:32:00,68.0,66.6,29.71,North,353,0.0,0.9,96,-99.99,,,-99.99,WSDL version 423,2013-07-16 10:32:00,
2013-07-16 06:37:00,69.5,67.9,29.71,North,11,0.0,1.1,93,-99.99,,,-99.99,WSDL version 423,2013-07-16 10:37:00,
2013-07-16 06:42:00,70.6,67.9,29.71,NE,38,0.0,1.1,91,-99.99,,,-99.99,WSDL version 423,2013-07-16 10:42:00,
2013-07-16 06:47:00,71.9,68.3,29.71,NE,45,0.4,1.3,87,-99.99,,,-99.99,WSDL version 423,2013-07-16 10:47:00,
2013-07-16 06:52:00,72.8,68.1,29.71,NNW,343,0.0,1.6,83,-99.99,,,-99.99,WSDL version 423,2013-07-16 10:52:00,
2013-07-16 06:57:00,73.8,67.5,29.71,NNW,343,1.0,2.0,80,-99.99,,,-99.99,WSDL version 423,2013-07-16 10:57:00,
2013-07-16 07:02:00,74.6,67.1,29.71,NW,309,0.0,2.0,75,-99.99,,,-99.99,WSDL version 423,2013-07-16 11:02:00,
2013-07-16 07:07:00,75.6,67.3,29.71,NE,37,0.0,1.3,73,-99.99,,,-99.99,WSDL version 423,2013-07-16 11:07:00,
2013-07-16 07:12:00,76.6,66.8,29.71,ENE,68,0.0,0.9,70,-99.99,,,-99.99,WSDL version 423,2013-07-16 11:12:00,
2013-07-16 07:17:00,77.7,67.4,29.71,NW,325,0.0,1.1,71,-99.99,,,-99.99,WSDL version 423,2013-07-16 11:17:00,
2013-07-16 07:22:00,78.4,67.1,29.71,NNE,23,0.0,1.3,67,-99.99,,,-99.99,WSDL version 423,2013-07-16 11:22:00,
2013-07-16 07:27:00,79.1,66.6,29.71,North,349,0.0,1.3,65,-99.99,,,-99.99,WSDL version 423,2013-07-16 11:27:00,
2013-07-16 07:32:00,79.6,66.7,29.71,North,360,0.4,1.6,65,-99.99,,,-99.99,WSDL version 423,2013-07-16 11:32:00,
2013-07-16 07:37:00,80.0,66.3,29.71,North,3,1.1,2.5,62,-99.99,,,-99.99,WSDL version 423,2013-07-16 11:37:00,
2013-07-16 07:42:00,80.2,65.7,29.71,NNW,348,0.6,2.5,61,-99.99,,,-99.99,WSDL version 423,2013-07-16 11:42:00,
2013-07-16 07:47:00,80.9,66.1,29.71,North,11,0.0,2.5,61,-99.99,,,-99.99,WSDL version 423,2013-07-16 11:47:00,
2013-07-16 07:52:00,81.6,66.0,29.71,NNE,25,0.7,2.5,59,-99.99,,,-99.99,WSDL version 423,2013-07-16 11:52:00,
2013-07-16 07:57:00,82.2,66.2,29.71,North,360,0.5,2.5,58,-99.99,,,-99.99,WSDL version 423,2013-07-16 11:57:00,
2013-07-16 08:02:00,82.8,66.3,29.71,North,6,0.7,2.2,57,-99.99,,,-99.99,WSDL version 423,2013-07-16 12:02:00,
2013-07-16 08:07:00,83.4,65.9,29.71,NE,45,0.9,2.0,55,-99.99,,,-99.99,WSDL version 423,2013-07-16 12:07:00,
2013-07-16 08:12:00,83.8,65.7,29.71,NNE,14,0.6,2.2,54,-99.99,,,-99.99,WSDL version 423,2013-07-16 12:12:00,
2013-07-16 08:17:00,84.2,65.2,29.71,ENE,75,0.7,2.2,50,-99.99,,,-99.99,WSDL version 423,2013-07-16 12:17:00,
2013-07-16 08:22:00,84.9,65.8,29.71,North,6,0.9,2.0,52,-99.99,,,-99.99,WSDL version 423,2013-07-16 12:22:00,
2013-07-16 08:27:00,85.4,65.7,29.74,NNW,343,0.2,2.0,52,-99.99,,,-99.99,WSDL version 423,2013-07-16 12:27:00,
2013-07-16 08:32:00,86.0,65.4,29.74,North,6,0.7,2.5,49,-99.99,,,-99.99,WSDL version 423,2013-07-16 12:32:00,
2013-07-16 08:37:00,86.9,65.8,29.74,NNE,28,0.4,2.5,48,-99.99,,,-99.99,WSDL version 423,2013-07-16 12:37:00,
2013-07-16 08:42:00,87.6,66.0,29.71,NNE,33,0.0,2.2,48,-99.99,,,-99.99,WSDL version 423,2013-07-16 12:42:00,
2013-07-16 08:47:00,88.2,65.4,29.71,North,3,1.1,3.1,46,-99.99,,,-99.99,WSDL version 423,2013-07-16 12:47:00,
2013-07-16 08:52:00,88.4,64.2,29.71,North,350,1.5,3.1,44,-99.99,,,-99.99,WSDL version 423,2013-07-16 12:52:00,
2013-07-16 08:57:00,88.3,63.5,29.71,NNE,14,1.5,2.7,44,-99.99,,,-99.99,WSDL version 423,2013-07-16 12:57:00,
2013-07-16 09:02:00,88.5,63.0,29.71,NW,315,1.4,2.9,43,-99.99,,,-99.99,WSDL version 423,2013-07-16 13:02:00,
2013-07-16 09:07:00,88.9,63.3,29.71,NNE,13,0.5,3.1,43,-99.99,,,-99.99,WSDL version 423,2013-07-16 13:07:00,
2013-07-16 09:12:00,89.2,63.0,29.71,North,11,2.0,3.1,41,-99.99,,,-99.99,WSDL version 423,2013-07-16 13:12:00,
2013-07-16 09:17:00,89.4,62.6,29.71,NNW,329,0.4,3.1,41,-99.99,,,-99.99,WSDL version 423,2013-07-16 13:17:00,
2013-07-16 09:22:00,89.8,61.8,29.71,NNE,19,1.8,3.1,39,-99.99,,,-99.99,WSDL version 423,2013-07-16 13:22:00,
2013-07-16 09:32:00,89.9,60.9,29.71,NW,315,1.8,3.4,38,-99.99,,,-99.99,WSDL version 423,2013-07-16 13:32:00,
2013-07-16 09:37:00,90.0,61.0,29.71,ENE,65,0.8,3.4,39,-99.99,,,-99.99,WSDL version 423,2013-07-16 13:37:00,
2013-07-16 09:42:00,90.7,60.8,29.71,NNW,335,2.4,4.3,34,-99.99,,,-99.99,WSDL version 423,2013-07-16 13:42:00,
2013-07-16 09:47:00,90.6,60.2,29.71,WSW,256,0.2,4.3,37,-99.99,,,-99.99,WSDL version 423,2013-07-16 13:47:00,
2013-07-16 09:52:00,91.5,60.8,29.71,North,358,2.1,3.8,35,-99.99,,,-99.99,WSDL version 423,2013-07-16 13:52:00,
2013-07-16 09:57:00,91.6,58.5,29.71,West,260,1.0,4.3,33,-99.99,,,-99.99,WSDL version 423,2013-07-16 13:57:00,
2013-07-16 10:02:00,91.4,58.0,29.71,NNE,20,3.0,4.3,33,-99.99,,,-99.99,WSDL version 423,2013-07-16 14:02:00,
2013-07-16 10:07:00,91.7,58.9,29.71,NNW,346,1.2,4.3,33,-99.99,,,-99.99,WSDL version 423,2013-07-16 14:07:00,
2013-07-16 10:12:00,92.0,58.6,29.74,WSW,248,0.2,3.6,34,-99.99,,,-99.99,WSDL version 423,2013-07-16 14:12:00,
2013-07-16 10:17:00,92.7,59.8,29.74,SW,231,1.2,2.7,33,-99.99,,,-99.99,WSDL version 423,2013-07-16 14:17:00,
2013-07-16 10:27:00,92.4,57.1,29.71,North,3,2.5,4.3,31,-99.99,,,-99.99,WSDL version 423,2013-07-16 14:27:00,
2013-07-16 10:37:00,94.0,59.9,29.71,WNW,285,0.0,1.6,32,-99.99,,,-99.99,WSDL version 423,2013-07-16 14:37:00,
2013-07-16 10:42:00,94.6,59.8,29.71,SW,236,0.2,1.3,31,-99.99,,,-99.99,WSDL version 423,2013-07-16 14:42:00,
2013-07-16 10:47:00,94.4,58.4,29.71,NNE,28,2.0,3.1,30,-99.99,,,-99.99,WSDL version 423,2013-07-16 14:47:00,
2013-07-16 10:52:00,94.2,58.2,29.71,WSW,255,0.7,3.1,31,-99.99,,,-99.99,WSDL version 423,2013-07-16 14:52:00,
2013-07-16 10:57:00,95.0,58.8,29.71,North,360,1.2,3.6,29,-99.99,,,-99.99,WSDL version 423,2013-07-16 14:57:00,
2013-07-16 11:02:00,94.6,56.9,29.71,North,6,2.2,5.8,29,-99.99,,,-99.99,WSDL version 423,2013-07-16 15:02:00,
2013-07-16 11:07:00,94.5,58.0,29.71,SSE,152,1.1,5.8,30,-99.99,,,-99.99,WSDL version 423,2013-07-16 15:07:00,
2013-07-16 11:12:00,95.0,58.0,29.71,South,188,0.5,2.9,29,-99.99,,,-99.99,WSDL version 423,2013-07-16 15:12:00,
2013-07-16 11:17:00,95.6,57.7,29.71,NNW,344,1.9,4.0,28,-99.99,,,-99.99,WSDL version 423,2013-07-16 15:17:00,
2013-07-16 11:22:00,95.3,57.1,29.71,NNW,340,3.1,4.3,28,-99.99,,,-99.99,WSDL version 423,2013-07-16 15:22:00,
2013-07-16 11:27:00,94.7,56.6,29.71,NNW,346,1.7,4.3,28,-99.99,,,-99.99,WSDL version 423,2013-07-16 15:27:00,
2013-07-16 11:32:00,94.7,56.7,29.71,ESE,121,1.4,4.3,28,-99.99,,,-99.99,WSDL version 423,2013-07-16 15:32:00,
2013-07-16 11:37:00,95.2,57.2,29.71,SE,135,0.7,4.3,28,-99.99,,,-99.99,WSDL version 423,2013-07-16 15:37:00,
2013-07-16 11:42:00,95.9,57.2,29.71,North,11,2.2,4.0,27,-99.99,,,-99.99,WSDL version 423,2013-07-16 15:42:00,
2013-07-16 11:47:00,96.4,57.8,29.71,SW,230,0.6,4.0,28,-99.99,,,-99.99,WSDL version 423,2013-07-16 15:47:00,
2013-07-16 11:52:00,96.6,57.2,29.71,North,354,2.1,4.0,27,-99.99,,,-99.99,WSDL version 423,2013-07-16 15:52:00,
2013-07-16 12:02:00,96.7,57.2,29.71,SSW,210,1.6,3.1,27,-99.99,,,-99.99,WSDL version 423,2013-07-16 16:02:00,
2013-07-16 12:07:00,97.3,57.8,29.71,SW,225,0.9,2.9,27,-99.99,,,-99.99,WSDL version 423,2013-07-16 16:07:00,
2013-07-16 12:12:00,98.4,58.7,29.71,SW,233,0.4,2.0,27,-99.99,,,-99.99,WSDL version 423,2013-07-16 16:12:00,
2013-07-16 12:17:00,99.5,59.1,29.71,WSW,242,0.0,2.0,27,-99.99,,,-99.99,WSDL version 423,2013-07-16 16:17:00,
2013-07-16 12:22:00,100.2,59.4,29.71,SW,228,0.0,1.3,26,-99.99,,,-99.99,WSDL version 423,2013-07-16 16:22:00,
2013-07-16 12:27:00,100.2,58.0,29.71,NW,315,0.6,2.7,24,-99.99,,,-99.99,WSDL version 423,2013-07-16 16:27:00,
2013-07-16 12:32:00,98.0,56.4,29.71,North,358,1.0,3.6,26,-99.99,,,-99.99,WSDL version 423,2013-07-16 16:32:00,
2013-07-16 12:37:00,95.0,55.2,29.71,NNE,17,1.2,3.6,27,-99.99,,,-99.99,WSDL version 423,2013-07-16 16:37:00,
2013-07-16 12:42:00,94.4,55.3,29.71,SSW,194,1.0,2.9,27,-99.99,,,-99.99,WSDL version 423,2013-07-16 16:42:00,
2013-07-16 12:47:00,95.9,56.9,29.71,WSW,245,1.5,3.8,27,-99.99,,,-99.99,WSDL version 423,2013-07-16 16:47:00,
2013-07-16 12:52:00,96.4,57.0,29.71,SSW,199,1.9,3.8,27,-99.99,,,-99.99,WSDL version 423,2013-07-16 16:52:00,
2013-07-16 12:57:00,96.4,57.0,29.71,SW,233,1.7,3.8,27,-99.99,,,-99.99,WSDL version 423,2013-07-16 16:57:00,
2013-07-16 13:02:00,95.5,56.6,29.71,SW,222,0.7,3.8,28,-99.99,,,-99.99,WSDL version 423,2013-07-16 17:02:00,
2013-07-16 13:07:00,95.5,56.7,29.71,WSW,248,0.0,2.5,28,-99.99,,,-99.99,WSDL version 423,2013-07-16 17:07:00,
2013-07-16 13:12:00,97.6,59.0,29.71,WSW,238,0.0,2.5,28,-99.99,,,-99.99,WSDL version 423,2013-07-16 17:12:00,
2013-07-16 13:17:00,97.4,57.1,29.71,North,357,1.7,3.1,26,-99.99,,,-99.99,WSDL version 423,2013-07-16 17:17:00,
2013-07-16 13:22:00,95.9,56.6,29.71,WNW,303,0.3,3.1,28,-99.99,,,-99.99,WSDL version 423,2013-07-16 17:22:00,
2013-07-16 13:27:00,94.0,56.6,29.71,WSW,248,0.0,2.5,29,-99.99,,,-99.99,WSDL version 423,2013-07-16 17:27:00,
2013-07-16 13:32:00,96.2,58.5,29.71,SW,225,1.0,1.6,28,-99.99,,,-99.99,WSDL version 423,2013-07-16 17:32:00,
2013-07-16 13:37:00,98.2,60.1,29.71,SW,225,0.0,1.6,28,-99.99,,,-99.99,WSDL version 423,2013-07-16 17:37:00,
2013-07-16 13:42:00,98.2,58.9,29.71,SW,225,0.0,1.3,27,-99.99,,,-99.99,WSDL version 423,2013-07-16 17:42:00,
2013-07-16 13:47:00,98.7,58.6,29.71,SW,225,0.1,2.7,27,-99.99,,,-99.99,WSDL version 423,2013-07-16 17:47:00,
2013-07-16 13:52:00,99.5,59.0,29.71,SW,228,0.3,2.7,26,-99.99,,,-99.99,WSDL version 423,2013-07-16 17:52:00,
2013-07-16 13:57:00,100.7,58.9,29.68,SW,225,0.7,2.0,25,-99.99,,,-99.99,WSDL version 423,2013-07-16 17:57:00,
2013-07-16 14:02:00,100.3,58.1,29.68,SW,225,0.8,2.0,25,-99.99,,,-99.99,WSDL version 423,2013-07-16 18:02:00,
2013-07-16 14:07:00,100.5,58.3,29.68,SW,228,0.2,2.0,25,-99.99,,,-99.99,WSDL version 423,2013-07-16 18:07:00,
2013-07-16 14:12:00,101.0,57.0,29.68,NW,323,2.0,3.4,22,-99.99,,,-99.99,WSDL version 423,2013-07-16 18:12:00,
2013-07-16 14:17:00,99.8,56.6,29.68,SW,233,0.6,3.4,25,-99.99,,,-99.99,WSDL version 423,2013-07-16 18:17:00,
2013-07-16 14:22:00,100.0,57.9,29.68,SW,225,0.5,3.1,25,-99.99,,,-99.99,WSDL version 423,2013-07-16 18:22:00,
2013-07-16 14:27:00,100.6,58.2,29.68,SW,236,1.1,2.5,25,-99.99,,,-99.99,WSDL version 423,2013-07-16 18:27:00,
2013-07-16 14:32:00,100.4,56.9,29.68,SE,146,0.8,2.5,23,-99.99,,,-99.99,WSDL version 423,2013-07-16 18:32:00,
2013-07-16 14:37:00,99.8,57.3,29.68,SSW,197,0.0,2.5,25,-99.99,,,-99.99,WSDL version 423,2013-07-16 18:37:00,
2013-07-16 14:42:00,100.5,57.7,29.68,SW,225,0.3,2.5,24,-99.99,,,-99.99,WSDL version 423,2013-07-16 18:42:00,
2013-07-16 14:47:00,101.2,58.0,29.68,SSW,194,0.0,2.5,24,-99.99,,,-99.99,WSDL version 423,2013-07-16 18:47:00,
2013-07-16 14:52:00,101.4,57.7,29.68,SE,135,0.8,2.0,24,-99.99,,,-99.99,WSDL version 423,2013-07-16 18:52:00,
2013-07-16 14:57:00,100.1,56.8,29.68,WSW,248,0.0,2.0,25,-99.99,,,-99.99,WSDL version 423,2013-07-16 18:57:00,
2013-07-16 15:02:00,99.2,57.7,29.68,SW,225,0.0,1.1,26,-99.99,,,-99.99,WSDL version 423,2013-07-16 19:02:00,
2013-07-16 15:07:00,99.9,58.1,29.68,SW,225,0.0,1.1,25,-99.99,,,-99.99,WSDL version 423,2013-07-16 19:07:00,
2013-07-16 15:12:00,100.4,58.3,29.68,WSW,245,0.0,1.3,25,-99.99,,,-99.99,WSDL version 423,2013-07-16 19:12:00,
2013-07-16 15:17:00,100.9,58.6,29.68,SE,135,1.0,2.0,25,-99.99,,,-99.99,WSDL version 423,2013-07-16 19:17:00,
2013-07-16 15:22:00,100.7,58.5,29.68,South,169,1.0,2.7,25,-99.99,,,-99.99,WSDL version 423,2013-07-16 19:22:00,
2013-07-16 15:27:00,100.0,59.0,29.68,WSW,240,0.0,2.7,26,-99.99,,,-99.99,WSDL version 423,2013-07-16 19:27:00,
2013-07-16 15:32:00,100.2,58.3,29.68,SW,225,0.8,1.3,25,-99.99,,,-99.99,WSDL version 423,2013-07-16 19:32:00,
2013-07-16 15:37:00,100.1,58.0,29.68,SW,225,0.5,2.5,25,-99.99,,,-99.99,WSDL version 423,2013-07-16 19:37:00,
2013-07-16 15:42:00,99.8,57.5,29.68,SW,225,0.0,2.5,25,-99.99,,,-99.99,WSDL version 423,2013-07-16 19:42:00,
2013-07-16 15:47:00,99.5,57.5,29.68,SW,225,0.4,2.5,25,-99.99,,,-99.99,WSDL version 423,2013-07-16 19:47:00,
2013-07-16 15:52:00,99.1,57.6,29.68,SW,228,1.1,2.5,26,-99.99,,,-99.99,WSDL version 423,2013-07-16 19:52:00,
2013-07-16 15:57:00,98.4,57.8,29.68,WSW,248,0.0,2.5,27,-99.99,,,-99.99,WSDL version 423,2013-07-16 19:57:00,
2013-07-16 16:02:00,97.8,58.2,29.68,WSW,238,0.0,2.0,27,-99.99,,,-99.99,WSDL version 423,2013-07-16 20:02:00,
2013-07-16 16:07:00,97.5,57.1,29.68,SW,228,0.9,1.6,26,-99.99,,,-99.99,WSDL version 423,2013-07-16 20:07:00,
2013-07-16 16:12:00,96.7,56.9,29.68,WSW,238,1.4,2.5,27,-99.99,,,-99.99,WSDL version 423,2013-07-16 20:12:00,
2013-07-16 16:17:00,95.8,56.5,29.68,WSW,248,0.2,2.5,27,-99.99,,,-99.99,WSDL version 423,2013-07-16 20:17:00,
2013-07-16 16:22:00,95.3,56.2,29.68,SW,228,1.8,2.7,28,-99.99,,,-99.99,WSDL version 423,2013-07-16 20:22:00,
2013-07-16 16:27:00,94.4,56.0,29.68,WSW,253,1.4,2.9,28,-99.99,,,-99.99,WSDL version 423,2013-07-16 20:27:00,
2013-07-16 16:32:00,93.8,55.8,29.68,WSW,248,0.1,2.9,28,-99.99,,,-99.99,WSDL version 423,2013-07-16 20:32:00,
2013-07-16 16:37:00,93.3,55.4,29.68,South,190,0.6,2.0,28,-99.99,,,-99.99,WSDL version 423,2013-07-16 20:37:00,
2013-07-16 16:42:00,92.9,55.5,29.68,SW,233,0.0,2.0,29,-99.99,,,-99.99,WSDL version 423,2013-07-16 20:42:00,
2013-07-16 16:47:00,92.6,55.8,29.68,SW,218,2.1,2.9,29,-99.99,,,-99.99,WSDL version 423,2013-07-16 20:47:00,
2013-07-16 16:52:00,92.0,55.2,29.68,WSW,238,0.2,2.9,29,-99.99,,,-99.99,WSDL version 423,2013-07-16 20:52:00,
2013-07-16 16:57:00,91.5,55.1,29.68,SW,236,2.1,2.9,29,-99.99,,,-99.99,WSDL version 423,2013-07-16 20:57:00,
2013-07-16 17:02:00,91.2,55.7,29.68,WSW,248,0.9,2.9,31,-99.99,,,-99.99,WSDL version 423,2013-07-16 21:02:00,
2013-07-16 17:07:00,91.2,55.8,29.68,WSW,250,1.3,2.5,31,-99.99,,,-99.99,WSDL version 423,2013-07-16 21:07:00,
2013-07-16 17:12:00,90.9,55.8,29.68,WSW,240,2.3,2.9,31,-99.99,,,-99.99,WSDL version 423,2013-07-16 21:12:00,
2013-07-16 17:17:00,90.5,55.8,29.68,WSW,238,1.3,2.9,31,-99.99,,,-99.99,WSDL version 423,2013-07-16 21:17:00,
2013-07-16 17:22:00,90.5,55.8,29.68,SW,235,0.7,2.5,31,-99.99,,,-99.99,WSDL version 423,2013-07-16 21:22:00,
2013-07-16 17:27:00,90.5,56.4,29.68,WSW,241,0.1,2.2,32,-99.99,,,-99.99,WSDL version 423,2013-07-16 21:27:00,
2013-07-16 17:32:00,90.5,57.0,29.68,WSW,248,0.0,1.6,33,-99.99,,,-99.99,WSDL version 423,2013-07-16 21:32:00,
2013-07-16 17:37:00,90.4,57.4,29.68,SW,231,1.8,2.5,33,-99.99,,,-99.99,WSDL version 423,2013-07-16 21:37:00,
2013-07-16 17:42:00,90.4,57.4,29.68,SW,231,1.5,2.5,33,-99.99,,,-99.99,WSDL version 423,2013-07-16 21:42:00,
2013-07-16 17:47:00,90.4,57.4,29.68,WSW,240,1.4,2.5,33,-99.99,,,-99.99,WSDL version 423,2013-07-16 21:47:00,
2013-07-16 17:52:00,90.0,57.1,29.68,WSW,240,1.4,2.5,33,-99.99,,,-99.99,WSDL version 423,2013-07-16 21:52:00,
2013-07-16 17:57:00,89.7,57.2,29.68,SW,231,1.2,2.7,34,-99.99,,,-99.99,WSDL version 423,2013-07-16 21:57:00,
2013-07-16 18:02:00,89.5,57.9,29.68,WSW,245,1.4,2.7,35,-99.99,,,-99.99,WSDL version 423,2013-07-16 22:02:00,
2013-07-16 18:07:00,89.4,58.5,29.68,SW,231,1.0,2.0,36,-99.99,,,-99.99,WSDL version 423,2013-07-16 22:07:00,
2013-07-16 18:12:00,89.3,59.0,29.68,WSW,248,0.9,2.5,36,-99.99,,,-99.99,WSDL version 423,2013-07-16 22:12:00,
2013-07-16 18:17:00,89.1,58.7,29.68,WSW,239,0.8,2.7,36,-99.99,,,-99.99,WSDL version 423,2013-07-16 22:17:00,
2013-07-16 18:22:00,88.8,57.7,29.68,SW,228,1.2,2.7,35,-99.99,,,-99.99,WSDL version 423,2013-07-16 22:22:00,
2013-07-16 18:27:00,88.7,58.4,29.65,SW,230,1.6,2.2,36,-99.99,,,-99.99,WSDL version 423,2013-07-16 22:27:00,
2013-07-16 18:32:00,88.4,58.3,29.65,SW,231,1.5,2.9,37,-99.99,,,-99.99,WSDL version 423,2013-07-16 22:32:00,
2013-07-16 18:37:00,88.2,57.9,29.65,WSW,250,1.2,2.9,36,-99.99,,,-99.99,WSDL version 423,2013-07-16 22:37:00,
2013-07-16 18:42:00,88.1,57.8,29.65,SW,233,1.5,2.5,36,-99.99,,,-99.99,WSDL version 423,2013-07-16 22:42:00,
2013-07-16 18:47:00,87.8,57.9,29.65,WSW,248,1.1,2.5,37,-99.99,,,-99.99,WSDL version 423,2013-07-16 22:47:00,
2013-07-16 18:52:00,87.7,58.7,29.65,WSW,248,1.2,2.5,38,-99.99,,,-99.99,WSDL version 423,2013-07-16 22:52:00,
2013-07-16 19:02:00,87.5,59.1,29.68,WSW,238,0.2,1.6,38,-99.99,,,-99.99,WSDL version 423,2013-07-16 23:02:00,
2013-07-16 19:07:00,87.3,59.4,29.68,SW,225,0.3,2.2,39,-99.99,,,-99.99,WSDL version 423,2013-07-16 23:07:00,
2013-07-16 19:12:00,87.2,59.3,29.65,SW,230,1.3,2.2,39,-99.99,,,-99.99,WSDL version 423,2013-07-16 23:12:00,
2013-07-16 19:17:00,87.1,59.9,29.65,SW,225,0.5,1.6,40,-99.99,,,-99.99,WSDL version 423,2013-07-16 23:17:00,
2013-07-16 19:22:00,86.9,59.7,29.65,WSW,243,1.3,2.0,40,-99.99,,,-99.99,WSDL version 423,2013-07-16 23:22:00,
2013-07-16 19:27:00,86.5,59.8,29.65,WSW,242,1.1,2.0,41,-99.99,,,-99.99,WSDL version 423,2013-07-16 23:27:00,
2013-07-16 19:32:00,86.1,59.7,29.65,WSW,248,1.1,2.0,41,-99.99,,,-99.99,WSDL version 423,2013-07-16 23:32:00,
2013-07-16 19:37:00,85.7,59.9,29.65,SW,225,0.0,2.0,42,-99.99,,,-99.99,WSDL version 423,2013-07-16 23:37:00,
2013-07-16 19:42:00,85.4,60.5,29.68,WSW,248,0.0,0.9,44,-99.99,,,-99.99,WSDL version 423,2013-07-16 23:42:00,
2013-07-16 19:47:00,85.2,61.1,29.68,WSW,248,0.0,0.0,45,-99.99,,,-99.99,WSDL version 423,2013-07-16 23:47:00,
2013-07-16 19:52:00,84.9,61.8,29.68,WSW,248,0.0,0.0,47,-99.99,,,-99.99,WSDL version 423,2013-07-16 23:52:00,
2013-07-16 19:57:00,84.4,62.6,29.68,WSW,248,0.0,0.0,48,-99.99,,,-99.99,WSDL version 423,2013-07-16 23:57:00,
2013-07-16 20:02:00,84.0,62.2,29.68,WSW,248,0.0,0.0,48,-99.99,,,-99.99,WSDL version 423,2013-07-17 00:02:00,
2013-07-16 20:07:00,83.6,62.3,29.68,WSW,248,0.0,0.0,49,-99.99,,,-99.99,WSDL version 423,2013-07-17 00:07:00,
2013-07-16 20:12:00,83.3,62.6,29.65,WSW,248,0.0,0.0,50,-99.99,,,-99.99,WSDL version 423,2013-07-17 00:12:00,
2013-07-16 20:17:00,82.9,63.0,29.65,WSW,248,0.0,0.0,51,-99.99,,,-99.99,WSDL version 423,2013-07-17 00:17:00,
2013-07-16 20:22:00,82.6,63.2,29.65,SSW,203,0.0,0.0,52,-99.99,,,-99.99,WSDL version 423,2013-07-17 00:22:00,
2013-07-16 20:27:00,82.3,63.3,29.68,SSW,203,0.0,0.0,53,-99.99,,,-99.99,WSDL version 423,2013-07-17 00:27:00,
2013-07-16 20:32:00,82.1,63.5,29.68,SSW,203,0.0,0.0,54,-99.99,,,-99.99,WSDL version 423,2013-07-17 00:32:00,
2013-07-16 20:37:00,81.8,63.6,29.68,SSW,203,0.0,0.0,54,-99.99,,,-99.99,WSDL version 423,2013-07-17 00:37:00,
2013-07-16 20:42:00,81.5,63.7,29.68,SSW,203,0.0,0.0,55,-99.99,,,-99.99,WSDL version 423,2013-07-17 00:42:00,
2013-07-16 20:47:00,81.3,64.1,29.68,SSW,203,0.0,0.0,56,-99.99,,,-99.99,WSDL version 423,2013-07-17 00:47:00,
2013-07-16 20:52:00,80.9,64.3,29.68,South,172,0.0,0.0,58,-99.99,,,-99.99,WSDL version 423,2013-07-17 00:52:00,
2013-07-16 20:57:00,80.6,64.5,29.68,SSW,203,0.0,0.0,58,-99.99,,,-99.99,WSDL version 423,2013-07-17 00:57:00,
2013-07-16 21:02:00,80.4,64.7,29.68,SSW,203,0.0,0.9,59,-99.99,,,-99.99,WSDL version 423,2013-07-17 01:02:00,
2013-07-16 21:07:00,80.2,64.9,29.68,SSW,203,0.0,0.9,60,-99.99,,,-99.99,WSDL version 423,2013-07-17 01:07:00,
2013-07-16 21:12:00,80.1,65.1,29.68,SE,124,0.0,0.0,61,-99.99,,,-99.99,WSDL version 423,2013-07-17 01:12:00,
2013-07-16 21:17:00,79.7,65.2,29.68,ESE,115,0.0,1.1,62,-99.99,,,-99.99,WSDL version 423,2013-07-17 01:17:00,
2013-07-16 21:22:00,79.1,65.4,29.68,ESE,106,0.0,1.1,64,-99.99,,,-99.99,WSDL version 423,2013-07-17 01:22:00,
2013-07-16 21:27:00,78.5,65.2,29.68,SE,135,0.0,1.6,64,-99.99,,,-99.99,WSDL version 423,2013-07-17 01:27:00,
2013-07-16 21:32:00,78.4,65.6,29.68,ENE,78,0.0,1.6,65,-99.99,,,-99.99,WSDL version 423,2013-07-17 01:32:00,
2013-07-16 21:37:00,78.3,65.7,29.68,ENE,68,0.0,0.0,66,-99.99,,,-99.99,WSDL version 423,2013-07-17 01:37:00,
2013-07-16 21:42:00,78.2,65.6,29.68,North,360,0.0,0.0,65,-99.99,,,-99.99,WSDL version 423,2013-07-17 01:42:00,
2013-07-16 21:47:00,78.0,65.9,29.68,North,360,0.0,0.0,67,-99.99,,,-99.99,WSDL version 423,2013-07-17 01:47:00,
2013-07-16 21:52:00,77.8,66.1,29.68,North,360,0.0,0.0,67,-99.99,,,-99.99,WSDL version 423,2013-07-17 01:52:00,
2013-07-16 22:02:00,77.5,66.1,29.68,West,270,0.0,0.0,68,-99.99,,,-99.99,WSDL version 423,2013-07-17 02:02:00,
2013-07-16 22:07:00,77.3,66.0,29.68,NNE,23,0.0,0.0,68,-99.99,,,-99.99,WSDL version 423,2013-07-17 02:07:00,
2013-07-16 22:12:00,77.2,66.0,29.68,ESE,115,0.0,0.0,69,-99.99,,,-99.99,WSDL version 423,2013-07-17 02:12:00,
2013-07-16 22:17:00,77.0,66.0,29.68,East,98,0.0,0.0,69,-99.99,,,-99.99,WSDL version 423,2013-07-17 02:17:00,
2013-07-16 22:22:00,76.7,66.2,29.68,NE,45,0.0,0.0,70,-99.99,,,-99.99,WSDL version 423,2013-07-17 02:22:00,
2013-07-16 22:27:00,76.6,66.3,29.68,WSW,255,0.0,0.0,71,-99.99,,,-99.99,WSDL version 423,2013-07-17 02:27:00,
2013-07-16 22:32:00,76.5,66.0,29.68,NNW,328,0.0,0.0,71,-99.99,,,-99.99,WSDL version 423,2013-07-17 02:32:00,
2013-07-16 22:37:00,76.4,66.3,29.68,NW,312,0.2,1.6,72,-99.99,,,-99.99,WSDL version 423,2013-07-17 02:37:00,
2013-07-16 22:42:00,76.2,66.7,29.68,NW,315,0.0,1.6,73,-99.99,,,-99.99,WSDL version 423,2013-07-17 02:42:00,
2013-07-16 22:47:00,76.0,66.8,29.68,North,3,0.0,0.0,73,-99.99,,,-99.99,WSDL version 423,2013-07-17 02:47:00,
2013-07-16 22:52:00,75.8,66.7,29.68,North,360,0.0,0.0,73,-99.99,,,-99.99,WSDL version 423,2013-07-17 02:52:00,
2013-07-16 22:57:00,75.7,66.5,29.68,North,360,0.0,0.0,74,-99.99,,,-99.99,WSDL version 423,2013-07-17 02:57:00,
2013-07-16 23:02:00,75.6,67.1,29.68,North,360,0.0,0.0,75,-99.99,,,-99.99,WSDL version 423,2013-07-17 03:02:00,
2013-07-16 23:07:00,75.4,66.8,29.68,North,360,0.0,0.0,75,-99.99,,,-99.99,WSDL version 423,2013-07-17 03:07:00,
2013-07-16 23:12:00,75.3,66.8,29.68,North,360,0.0,0.0,75,-99.99,,,-99.99,WSDL version 423,2013-07-17 03:12:00,
2013-07-16 23:22:00,74.9,67.2,29.68,North,360,0.0,0.0,77,-99.99,,,-99.99,WSDL version 423,2013-07-17 03:22:00,
2013-07-16 23:27:00,74.7,66.9,29.68,NNW,328,0.0,0.0,77,-99.99,,,-99.99,WSDL version 423,2013-07-17 03:27:00,
2013-07-16 23:32:00,74.6,67.3,29.68,NNE,23,0.0,0.0,78,-99.99,,,-99.99,WSDL version 423,2013-07-17 03:32:00,
2013-07-16 23:37:00,74.4,67.4,29.68,NNE,23,0.0,0.0,79,-99.99,,,-99.99,WSDL version 423,2013-07-17 03:37:00,
2013-07-16 23:42:00,74.3,67.4,29.68,NNE,23,0.0,0.0,79,-99.99,,,-99.99,WSDL version 423,2013-07-17 03:42:00,
2013-07-16 23:47:00,74.2,67.4,29.68,North,10,0.0,0.0,79,-99.99,,,-99.99,WSDL version 423,2013-07-17 03:47:00,
2013-07-16 23:52:00,74.1,67.5,29.68,North,360,0.0,0.0,80,-99.99,,,-99.99,WSDL version 423,2013-07-17 03:52:00,
2013-07-16 23:57:00,73.9,67.3,29.68,North,360,0.0,0.0,80,-99.99,,,-99.99,WSDL version 423,2013-07-17 03:57:00,